Regional Weather Roundup
Issued by NWS Jackson, KY

Home | Current Version | Previous Version | Text Only | Print | Product List | Glossary Off
Versions: 1 2 3 4 5 6 7 8 9 10 11 12 13 14 15 16 17 18 19 20 21 22 23 24 25 26 27 28 29 30 31 32 33 34 35 36 37 38 39 40 41 42 43 44 45 46 47 48 49 50

708
ASUS43 KJKL 290210
RWRJKL

EAST KENTUCKY HOURLY WEATHER ROUNDUP
NATIONAL WEATHER SERVICE JACKSON KY
1000 PM EDT WED JUN 28 2017

NOTE: "FAIR" INDICATES FEW OR NO CLOUDS BELOW 12,000 FEET WITH
NO SIGNIFICANT WEATHER AND/OR OBSTRUCTIONS TO VISIBILITY.

* THESE REPORTS ARE NOT UNDER NWS QUALITY CONTROL AND MAY NOT
  REPORT WEATHER SUCH AS PRECIPITATION AND FOG.

KYZ079-080-083-085-087-088-110-112-115-119-120-290300
...EASTERN KENTUCKY...

CITY           SKY/WX    TMP DP  RH WIND       PRES   REMARKS
JACKSON        CLEAR     72  57  59 CALM      30.10S
LONDON         CLEAR     71  56  58 CALM      30.09F
SOMERSET*      CLOUDY    68  59  73 S3        30.09S
WILLIAMSBURG*  CLEAR     68  57  68 S3        30.10S
MIDDLESBORO*   CLEAR     69  59  71 CALM      30.13R
HARLAN APT*    CLEAR     66  57  72 CALM      30.14R
PIKE CO APT*     N/A     72  57  60 S3        30.11S
BIG SANDY APT* CLEAR     72  57  60 CALM      30.11R
MOREHEAD APT*  CLEAR     70  57  64 SE3       30.08F
ASHLAND*       CLEAR     66  61  82 CALM      30.05R
$$

KYZ035-036-041-042-044-050-067-078-099-290300
...CENTRAL KENTUCKY...

CITY           SKY/WX    TMP DP  RH WIND       PRES   REMARKS
MT STERLING*   CLEAR     68  59  73 S6        30.07F
FLEMING/MASON* CLOUDY    69  56  63 SE7       30.06F
DANVILLE*      CLOUDY    68  59  73 S3        30.07F
LEXINGTON      CLOUDY    71  55  56 S7        30.05F
FRANKFORT      MOCLDY    73  54  51 S7        30.02F
LOUISVILLE     CLOUDY    76  57  51 SE9       30.00F
LEBANON*         N/A     70  57  64 SE8       30.04F
GLASGOW*       CLEAR     74  57  54 SE5       30.03F
BOWLING GREEN  CLOUDY    76  61  59 SE9       30.01F
$$

KYZ091>093-OHZ055-061-077-WVZ005-015-034-035-042-290300
...SOUTHERN OHIO/WEST VIRGINIA...

CITY           SKY/WX    TMP DP  RH WIND       PRES   REMARKS
COVINGTON      CLOUDY    71  57  61 S7        30.01F
COLUMBUS       CLOUDY    72  54  53 S8        30.02F
DAYTON         MOCLDY    71  52  50 S8        30.02R
WILMINGTON     PTCLDY    67  56  67 S5        30.02S
HUNTINGTON     CLOUDY    68  57  68 SE3       30.07R
CHARLESTON     PTCLDY    66  56  70 CALM      30.09S
PINEVILLE*     CLEAR     61  57  87 MISG      30.19S
BECKLEY        CLEAR     66  46  48 SE10      30.18S
BLUEFIELD      CLEAR     67  53  61 S9        30.22R
LOGAN CO APT*    N/A     70  54  56 CALM      30.12R
$$

VAZ002-007-008-TNZ017-027-036-066-071-290300
...SOUTHWEST VIRGINIA/EAST TENNESSEE...

CITY           SKY/WX    TMP DP  RH WIND       PRES   REMARKS
WISE*          CLEAR     68  50  52 CALM      30.20S
JONESVILLE*    MOCLDY    66  59  77 CALM      30.15R
ABINGDON*      CLEAR     73  57  57 S5        30.18R
BRISTOL        PTCLDY    73  58  59 S3        30.15R
MORRISTOWN*    CLOUDY    75  63  64 CALM      30.12R
SEVIERVILLE*   CLEAR     73  59  60 SW3       30.11R
KNOXVILLE      PTCLDY    75  56  51 S3        30.10R
LAFOLLETTE*      N/A     66  61  82 CALM      30.15R
OAK RIDGE      CLEAR     71  57  61 CALM      30.12R
CROSSVILLE     CLEAR     69  57  65 S3        30.14S
NASHVILLE      PTCLDY    78  60  53 S3        30.05R
$$

...KEY TO REMARKS...
VSB - VISIBILITY IN MILES
WCI - WIND CHILL INDEX
HX  - HEAT INDEX

$$




USA.gov is the U.S. government's official web portal to all federal, state and local government web resources and services.